ソニア彗星

C/2020 J1 ( SONEAR )

English version
Home page
Updated on January 23, 2021

---------------------------------------------------------------------

・ プロフィール

発見日 2020年5月1日
発見光度 17.0等
発見者 Southern Observatory for Near Earth Research (SONEAR) at Oliveira, Brazil

・ 写真集

・ 軌道要素

Epoch 2021 Apr. 16.0 TT = JDT 2459320.5
T 2021 Apr. 18.54577 TT                                 Rudenko
q   3.3552246            (2000.0)            P               Q
z  -0.0000969      Peri.  341.74243     -0.47268715     -0.76105732
 +/-0.0000063      Node   226.58150     -0.71294910     +0.03396860
e   1.0003250      Incl.  142.29339     -0.51794830     +0.64779463
From 212 observations 2020 May 1-Nov. 2, mean residual 0".4.

・ 星図

・ 光度変化

        m1 = 6.5 + 5 logΔ + 10.0 log r

---------------------------------------------------------------------

軌道要素はM.P.E.C. 2020-W26に掲載されたものです。
星図はステラナビゲータ Ver.10 (アストロアーツ) で作成したものです。
光度グラフはComet for Windowsで作成したものです。

---------------------------------------------------------------------

Copyright(C) Seiichi Yoshida (comet@aerith.net). All rights reserved.